Volver al catálogo

STARLINK-30426

ActivoComunicacionesVLEO
NORAD 57848·PAYLOAD·🇺🇸 United States

Lanzado Sep 12, 2023 desde Vandenberg Space Force Base

Loading…

Próximos Pases (próximas 24 horas)

TLE

ActualizadoSource: CelesTrak SupGP

Época: Sep 14, 2026, 20:47 UTC

1 57848C 23141J   26257.86645833 -.00068992  00000+0 -20383-2 0  2578
2 57848  53.1573 124.0922 0001268  90.8972  32.0950 15.34426330    11

Sigue STARLINK-30426 en tiempo real con AllMySat

Download on the App Store